User: anonymous   Login
Location: Unspecified
(0.0000°N, 0.0000°E)
Time: 01:05:17
(UTC+00:00)
Language:

Isis 2 - Orbit

View from above orbital plane
View from above orbital plane
View from above satellite
View from above satellite

Ground track
Ground track

The orbit data is extracted from the following two-line orbital elements,

1  5104U 71024A   18140.35785826 +.00000031 +00000-0 +10351-3 0  9999
2  5104 088.1662 067.0846 0042301 238.7733 236.6761 12.67837094180958
Epoch (UTC): 20 May 2018 08:35:18
Eccentricity: 0.0042301
inclination: 88.1662°
perigee height: 1358 km
apogee height: 1423 km
right ascension of ascending node: 67.0846°
argument of perigee: 238.7733°
revolutions per day: 12.67837094
mean anomaly at epoch: 236.6761°
orbit number at epoch: 18095

The dashed part of the orbit path shows where the satellite is in the earth's shadow,  

DLR